This demonstration page uses our WeatherBlox Daily Observations layout. Learn more.

Left ArrowRight Arrow

44.31136, -96.79839

Hourly Observations for March 31, 2023

Temp ( °F °C ) Dew Point ( °F °C ) Humidity (%) Winds ( mph kmh ) Pressure ( in mb ) Visibility ( mi km ) Precip ( " mm )
12:28 am 00:28 Cloudy 30 -1 28 -2 93 93 ENE 13 20 29.65 1004 7 11 0.00 0.00
12:56 am 00:56 Cloudy with Light Wintry Mix 31 -0.6 29 -1.7 92 92 NE 12 19 29.63 1004 8 13 0.01 0.13
1:24 am 01:24 Cloudy with Light Snow 30 -1 28 -2 93 93 NE 13 20 29.62 1003 6 10 0.01 0.13
1:53 am 01:53 Cloudy with Mist and Fog 28 -2 27 -3 93 93 NE 17 28 29.62 1003 5 8 0.01 0.13
1:56 am 01:56 Cloudy with Mist and Fog 29 -1.7 27 -2.8 92 92 NE 20 31 29.62 1003 4 6 0.01 0.13
2:17 am 02:17 Cloudy with Mist and Fog 28 -2 27 -3 93 93 NE 17 28 29.61 1003 3 5 0.00 0.00
2:32 am 02:32 Cloudy with Mist and Fog 28 -2 27 -3 93 93 NE 15 24 29.63 1003 3 4 0.00 0.00
2:56 am 02:56 Cloudy with Mist and Fog 28 -2.2 27 -2.8 96 96 NE 18 30 29.61 1003 3 4 0.00 0.00
3:56 am 03:56 Cloudy with Light Snow 29 -1.7 28 -2.2 96 96 ENE 18 30 29.60 1002 3 4 0.01 0.13
4:26 am 04:26 Cloudy with Mist and Fog 28 -2 28 -2 100 100 ENE 14 22 29.57 1001 3 5 0.01 0.13
4:48 am 04:48 Cloudy with Light Snow 30 -1 28 -2 93 93 NE 14 22 29.58 1002 3 5 0.01 0.13
5:03 am 05:03 Cloudy with Light Snow 28 -2 28 -2 100 100 NE 12 19 29.62 1003 3 5 0.01 0.13
5:30 am 05:30 Cloudy with Light Snow 28 -2 28 -2 100 100 NNE 14 22 29.63 1003 3 4 0.01 0.25
5:56 am 05:56 Cloudy with Light Snow 29 -1.7 28 -2.2 96 96 ENE 15 24 29.58 1002 3 4 0.01 0.25
6:09 am 06:09 Cloudy with Mist and Fog 28 -2 28 -2 100 100 ENE 17 28 29.58 1002 4 6 0.01 0.13
6:33 am 06:33 Cloudy 30 -1 28 -2 93 93 ENE 16 26 29.55 1001 8 13 0.01 0.13
6:56 am 06:56 Cloudy 30 -1.1 29 -1.7 96 96 NNE 12 19 29.58 1002 9 14 0.01 0.13
7:24 am 07:24 Cloudy with Mist and Fog 30 -1 28 -2 93 93 NNE 15 24 29.56 1001 3 5 0.00 0.00
7:32 am 07:32 Cloudy with Mist and Fog 30 -1 28 -2 93 93 NNE 17 28 29.56 1001 2 3 0.00 0.00
7:56 am 07:56 Cloudy with Mist and Fog 30 -1.1 29 -1.7 96 96 NNE 12 19 29.59 1002 1 1 0.00 0.00
8:12 am 08:12 Cloudy with Freezing Fog 30 -1 28 -2 93 93 NE 17 28 29.55 1001 0 0 0.00 0.00
8:56 am 08:56 Cloudy with Freezing Fog 30 -1.1 29 -1.7 96 96 NE 17 28 29.53 1000 0 0 0.01 0.13
9:09 am 09:09 Cloudy with Freezing Fog 30 -1 30 -1 100 100 NE 15 24 29.54 1000 1 1 0.01 0.13
9:56 am 09:56 Cloudy with Light Snow 31 -0.6 30 -1.1 96 96 NE 15 24 29.53 1000 1 1 0.01 0.13
10:29 am 10:29 Windy with Snow Likely 30 -1 30 -1 100 100 NE 21 33 29.49 999 0 0 0.01 0.13
10:56 am 10:56 Cloudy with Freezing Fog 31 -0.6 30 -1.1 96 96 ENE 17 28 29.49 999 0 0 0.01 0.13
11:34 am 11:34 Cloudy with Freezing Fog 30 -1 30 -1 100 100 ENE 20 31 29.50 999 1 1 0.01 0.13
11:56 am 11:56 Cloudy with Mist and Fog 31 -0.6 31 -0.6 100 100 ENE 17 28 29.49 999 1 1 0.01 0.13
12:27 pm 12:27 Cloudy with Mist and Fog 32 0 30 -1 93 93 ENE 16 26 29.46 998 1 2 0.01 0.13
12:51 pm 12:51 Cloudy with Mist and Fog 32 0 30 -1 93 93 ENE 15 24 29.45 997 4 6 0.01 0.13
12:56 pm 12:56 Cloudy with Mist and Fog 32 0 31 -0.6 96 96 ENE 21 33 29.44 997 4 6 0.01 0.13
1:37 pm 13:37 Cloudy with Light Wintry Mix 32 0 30 -1 93 93 NE 25 41 29.38 995 7 11 0.01 0.13
1:56 pm 13:56 Cloudy with Mist and Fog 32 0 30 -1.1 92 92 ENE 25 41 29.39 995 6 10 0.01 0.13
2:09 pm 14:09 Cloudy with Thunderstorms 32 0 30 -1 93 93 ENE 21 33 29.37 995 5 8 0.01 0.13
2:37 pm 14:37 Cloudy with Nearby Thunderstorms 32 0 30 -1 93 93 ENE 18 30 29.40 995 5 8 0.02 0.51
2:56 pm 14:56 Cloudy with Light Wintry Mix 32 0 30 -1.1 92 92 VRB 5 7 29.48 998 8 13 0.02 0.51
3:10 pm 15:10 Cloudy with Light Snow 34 1 30 -1 86 86 E 8 13 29.47 998 2 3 0.02 0.51
3:30 pm 15:30 Cloudy with Light Rain 34 1 30 -1 86 86 VRB 6 9 29.47 998 3 4 0.03 0.76
3:41 pm 15:41 Cloudy with Light Rain 34 1 30 -1 86 86 NNE 7 11 29.47 998 3 5 0.03 0.76
3:56 pm 15:56 Cloudy with Mist and Fog 33 0.6 31 -0.6 92 92 NNE 7 11 29.49 999 3 5 0.03 0.76
4:14 pm 16:14 Cloudy with Mist and Fog 34 1 30 -1 86 86 NNE 8 13 29.46 998 3 4 0.01 0.25
4:42 pm 16:42 Cloudy with Mist and Fog 32 0 30 -1 93 93 NNE 10 17 29.45 997 3 5 0.01 0.25
4:56 pm 16:56 Cloudy with Mist and Fog 32 0 31 -0.6 96 96 NNE 9 15 29.47 998 3 4 0.01 0.25
5:24 pm 17:24 Cloudy with Mist and Fog 32 0 30 -1 93 93 NNE 9 15 29.45 997 3 5 0.01 0.25
5:56 pm 17:56 Cloudy with Mist and Fog 32 0 30 -1.1 92 92 NNE 13 20 29.47 998 3 5 0.01 0.25
6:56 pm 18:56 Cloudy with Mist and Fog 32 0 30 -1.1 92 92 NNE 15 24 29.51 999 3 5 0.01 0.13
7:56 pm 19:56 Cloudy 32 0 29 -1.7 88 88 NNE 17 28 29.54 1000 9 14 0.01 0.13
8:56 pm 20:56 Cloudy with Mist and Fog 32 0 30 -1.1 92 92 NNE 20 31 29.57 1001 4 6 0.01 0.13
9:56 pm 21:56 Cloudy with Mist and Fog 31 -0.6 29 -1.7 92 92 N 28 44 29.60 1002 5 8 0.01 0.25
10:25 pm 22:25 Windy with Snow Likely 30 -1 28 -2 93 93 NNE 25 41 29.62 1003 2 3 0.01 0.13
10:38 pm 22:38 Windy with Snow Likely 30 -1 28 -2 93 93 N 23 37 29.63 1003 1 2 0.01 0.13
10:56 pm 22:56 Windy with Snow Likely 30 -1.1 29 -1.7 96 96 N 24 39 29.65 1004 1 2 0.01 0.13
11:38 pm 23:38 Windy with Snow Likely 30 -1 28 -2 93 93 N 22 35 29.67 1005 2 3 0.01 0.13
11:56 pm 23:56 Windy with Snow Likely 30 -1.1 28 -2.2 92 92 N 29 46 29.68 1005 2 3 0.01 0.13

Powered by AerisWeather